Location: *
(60.1759°S, 155.0663°W)
Time: 11:47:18
(UTC+00:00)

ALOS 2 - Pass Details

Date: 17 September 2019
Orbit: 630 x 632 km, 97.9° (Epoch: 15 October)

Event Time Altitude Azimuth Distance (km) Brightness Sun altitude
Rises 12:19:58 0° 166° (SSE) 2,977 7.1 -27.3°
Reaches altitude 10° 12:22:23 10° 176° (S) 2,062 5.9 -27.1°
Enters shadow 12:25:37 29° 218° (SW) 1,186 4.1 -26.9°
